| time (UTC) | temp C | wind direction | speed KPH | gust KPH | rain 1hr cm | rain 24hr cm | rain mn cm | humidity % | barometer mb |
| 20260506090059 | 16 | 39 | 1.6 | 6.4 | 0.00 | 0.00 | 0.00 | 70 | 1005.5 |
| 20260506084615 | 16 | 100 | 0.0 | 4.8 | 0.00 | 0.00 | 0.00 | 70 | 1005.6 |
| 20260506083100 | 16 | 40 | 0.0 | 3.2 | 0.00 | 0.00 | 0.00 | 70 | 1005.7 |
| 20260506081606 | 17 | 109 | 0.0 | 3.2 | 0.00 | 0.00 | 0.00 | 70 | 1005.5 |
| 20260506073101 | 18 | 74 | 1.6 | 4.8 | 0.00 | 0.00 | 0.00 | 69 | 1005.2 |
| 20260506071557 | 18 | 78 | 1.6 | 4.8 | 0.00 | 0.00 | 0.00 | 68 | 1005.4 |
| 20260506061602 | 20 | 79 | 1.6 | 6.4 | 0.00 | 0.00 | 0.00 | 62 | 1004.5 |
| 20260506050110 | 22 | 112 | 0.0 | 4.8 | 0.00 | 0.00 | 0.00 | 50 | 1004.2 |
| 20260506044558 | 22 | 79 | 0.0 | 3.2 | 0.00 | 0.00 | 0.00 | 46 | 1004.2 |
| 20260506043106 | 22 | 98 | 1.6 | 6.4 | 0.00 | 0.00 | 0.00 | 43 | 1004.2 |
| 20260506041559 | 22 | 331 | 0.0 | 0.0 | 0.00 | 0.00 | 0.00 | 44 | 1003.9 |
| 20260506040107 | 23 | 331 | 0.0 | 0.0 | 0.00 | 0.00 | 0.00 | 40 | 1003.9 |
| 20260506034605 | 23 | 331 | 0.0 | 0.0 | 0.00 | 0.00 | 0.00 | 38 | 1003.6 |
| 20260506033059 | 25 | 331 | 0.0 | 3.2 | 0.00 | 0.00 | 0.00 | 32 | 1003.8 |
| 20260506031559 | 26 | 330 | 1.6 | 6.4 | 0.00 | 0.00 | 0.00 | 30 | 1003.7 |
| 20260506030059 | 26 | 333 | 1.6 | 6.4 | 0.00 | 0.00 | 0.00 | 28 | 1003.4 |
| 20260506024600 | 26 | 338 | 1.6 | 6.4 | 0.00 | 0.00 | 0.00 | 27 | 1003.2 |
| 20260506023100 | 26 | 329 | 1.6 | 4.8 | 0.00 | 0.00 | 0.00 | 29 | 1002.9 |
| 20260506021606 | 27 | 340 | 1.6 | 6.4 | 0.00 | 0.00 | 0.00 | 26 | 1002.8 |
| 20260506020059 | 27 | 330 | 3.2 | 9.7 | 0.00 | 0.00 | 0.00 | 25 | 1002.5 |
| 20260506014559 | 28 | 314 | 1.6 | 6.4 | 0.00 | 0.00 | 0.00 | 24 | 1002.5 |
| 20260506013106 | 28 | 314 | 1.6 | 6.4 | 0.00 | 0.00 | 0.00 | 26 | 1002.4 |
| 20260506011607 | 29 | 316 | 1.6 | 8.0 | 0.00 | 0.00 | 0.00 | 25 | 1002.2 |
| 20260506010059 | 30 | 326 | 6.4 | 14.5 | 0.00 | 0.00 | 0.00 | 24 | 1002.1 |
| 20260506004558 | 30 | 309 | 1.6 | 6.4 | 0.00 | 0.00 | 0.00 | 29 | 1001.8 |
| 20260506003059 | 30 | 281 | 0.0 | 3.2 | 0.00 | 0.00 | 0.00 | 28 | 1001.4 |
| 20260506001600 | 30 | 281 | 0.0 | 3.2 | 0.00 | 0.00 | 0.00 | 27 | 1001.3 |
| 20260506000059 | 30 | 269 | 1.6 | 4.8 | 0.00 | 0.00 | 0.00 | 26 | 1001.4 |
| 20260505234608 | 31 | 259 | 1.6 | 4.8 | 0.00 | 0.00 | 0.00 | 24 | 1001.2 |
| 20260505233058 | 31 | 304 | 1.6 | 4.8 | 0.00 | 0.00 | 0.00 | 23 | 1001.2 |
| 20260505231608 | 32 | 272 | 3.2 | 16.1 | 0.00 | 0.00 | 0.00 | 21 | 1001.3 |
| 20260505230059 | 32 | 250 | 1.6 | 16.1 | 0.00 | 0.00 | 0.00 | 24 | 1001.2 |
| 20260505224558 | 33 | 312 | 6.4 | 16.1 | 0.00 | 0.00 | 0.00 | 21 | 1001.4 |
| 20260505223106 | 33 | 290 | 4.8 | 14.5 | 0.00 | 0.00 | 0.00 | 22 | 1001.4 |
| 20260505221600 | 33 | 296 | 3.2 | 12.9 | 0.00 | 0.00 | 0.00 | 22 | 1001.5 |
| 20260505220059 | 33 | 355 | 3.2 | 14.5 | 0.00 | 0.00 | 0.00 | 24 | 1001.4 |
| 20260505214619 | 33 | 323 | 8.0 | 19.3 | 0.00 | 0.00 | 0.00 | 21 | 1001.4 |
| 20260505213103 | 33 | 329 | 8.0 | 17.7 | 0.00 | 0.00 | 0.00 | 22 | 1001.4 |
| 20260505211607 | 33 | 328 | 8.0 | 17.7 | 0.00 | 0.00 | 0.00 | 21 | 1001.5 |
| 20260505210058 | 34 | 342 | 4.8 | 19.3 | 0.00 | 0.00 | 0.00 | 23 | 1001.6 |
| 20260505204558 | 34 | 339 | 4.8 | 17.7 | 0.00 | 0.00 | 0.00 | 23 | 1001.8 |
| 20260505203058 | 33 | 5 | 6.4 | 17.7 | 0.00 | 0.00 | 0.00 | 24 | 1001.8 |
| 20260505201559 | 33 | 271 | 6.4 | 17.7 | 0.00 | 0.00 | 0.00 | 23 | 1001.8 |
| 20260505200106 | 33 | 306 | 3.2 | 16.1 | 0.00 | 0.00 | 0.00 | 26 | 1002.1 |
| 20260505194558 | 33 | 292 | 4.8 | 16.1 | 0.00 | 0.00 | 0.00 | 28 | 1002.3 |
| 20260505193058 | 33 | 288 | 8.0 | 17.7 | 0.00 | 0.00 | 0.00 | 26 | 1002.4 |
| 20260505191558 | 32 | 338 | 6.4 | 16.1 | 0.00 | 0.00 | 0.00 | 30 | 1002.5 |
| 20260505190059 | 32 | 308 | 8.0 | 19.3 | 0.00 | 0.00 | 0.00 | 29 | 1002.7 |
| 20260505184558 | 32 | 355 | 6.4 | 16.1 | 0.00 | 0.00 | 0.00 | 32 | 1002.9 |
| 20260505183106 | 32 | 329 | 4.8 | 9.7 | 0.00 | 0.00 | 0.00 | 33 | 1002.9 |
| 20260505181559 | 32 | 275 | 3.2 | 12.9 | 0.00 | 0.00 | 0.00 | 39 | 1003.0 |
| 20260505180104 | 31 | 307 | 3.2 | 8.0 | 0.00 | 0.00 | 0.00 | 47 | 1003.2 |
| 20260505174604 | 30 | 328 | 3.2 | 11.3 | 0.00 | 0.00 | 0.00 | 46 | 1003.3 |
| 20260505173059 | 30 | 298 | 0.0 | 6.4 | 0.00 | 0.00 | 0.00 | 53 | 1003.3 |
| 20260505171557 | 28 | 255 | 3.2 | 12.9 | 0.00 | 0.00 | 0.00 | 53 | 1003.5 |
| 20260505170058 | 27 | 171 | 3.2 | 9.7 | 0.00 | 0.00 | 0.00 | 59 | 1003.5 |
| 20260505164605 | 26 | 185 | 3.2 | 12.9 | 0.00 | 0.00 | 0.00 | 63 | 1003.6 |
| 20260505163058 | 26 | 186 | 4.8 | 14.5 | 0.00 | 0.00 | 0.00 | 63 | 1003.6 |
| 20260505161605 | 25 | 255 | 4.8 | 16.1 | 0.00 | 0.00 | 0.00 | 66 | 1003.7 |
| 20260505153107 | 24 | 311 | 4.8 | 14.5 | 0.00 | 0.00 | 0.00 | 71 | 1003.6 |
| 20260505151610 | 23 | 283 | 4.8 | 14.5 | 0.00 | 0.00 | 0.00 | 72 | 1003.4 |
| 20260505140113 | 22 | 225 | 1.6 | 11.3 | 0.00 | 0.00 | 0.00 | 79 | 1003.6 |
| 20260505124608 | 20 | 269 | 0.0 | 6.4 | 0.00 | 0.00 | 0.00 | 84 | 1003.1 |
| 20260505123058 | 20 | 296 | 1.6 | 9.7 | 0.00 | 0.00 | 0.00 | 84 | 1003.0 |
| 20260505121559 | 19 | 313 | 1.6 | 6.4 | 0.00 | 0.00 | 0.00 | 83 | 1002.8 |
| 20260505120058 | 20 | 282 | 3.2 | 6.4 | 0.00 | 0.00 | 0.00 | 83 | 1002.5 |
| 20260505114602 | 20 | 272 | 1.6 | 11.3 | 0.00 | 0.00 | 0.00 | 82 | 1002.2 |
| 20260505113118 | 20 | 244 | 1.6 | 11.3 | 0.00 | 0.00 | 0.00 | 81 | 1002.1 |
| 20260505111601 | 20 | 201 | 3.2 | 16.1 | 0.00 | 0.00 | 0.00 | 81 | 1002.0 |
| 20260505101557 | 20 | 213 | 4.8 | 14.5 | 0.00 | 0.00 | 0.00 | 78 | 1001.8 |
| 20260505100058 | 20 | 267 | 3.2 | 17.7 | 0.00 | 0.00 | 0.00 | 78 | 1001.8 |
| 20260505094556 | 20 | 259 | 4.8 | 12.9 | 0.00 | 0.00 | 0.00 | 78 | 1001.9 |
| 20260505093101 | 20 | 202 | 4.8 | 16.1 | 0.00 | 0.00 | 0.00 | 77 | 1001.9 |
| 20260505091606 | 20 | 171 | 4.8 | 17.7 | 0.00 | 0.00 | 0.00 | 77 | 1001.7 |